sat.trackr.live / text

‹ back to catalog

STARLINK-35280

NORAD 66025 · 2025-232W

PAYLOAD ACTIVE UNKNOWN

§ Identity

Operator
Country
US
Launch date
2025-10-16
Launch site
AFETR
Launch vehicle
Mass (kg)
RCS (m²)

Purposes: comms

External: N2YO · Heavens-Above · Gunter

§ Orbital elements

Epoch: 2026-05-25T03:15:47.490048Z

Period
94.10 min
Inclination
53.1576°
Eccentricity
0.0001084
Mean motion
15.30217148 rev/d
Perigee alt
474.4 km
Apogee alt
475.9 km
Semi-major
6,853.3 km
B*
6.5799e-4
RAAN
108.5464°
Arg perigee
85.2334°
Mean anomaly
274.8790°
Rev number
3,514

§ Raw data

STARLINK-352801 66025U 25232W   26145.13596632  .00019189  00000+0  65799-3 0  99922 66025  53.1576 108.5464 0001084  85.2334 274.8790 15.30217148 35146

JSON: /api/v1/satellites/66025 · /tle

For live sub-satellite position, see the globe view (requires WebGL).

§ Visibility from observer

Set your observer location to see the next 7 days of passes ≥ 10°. The values pass through the URL so the page stays shareable.

No JS? Fill the form by hand. The geolocation button needs JavaScript.